Regional Weather Roundup
Issued by NWS

Home | Current Version | Previous Version | Text Only | Print | Product List | Glossary Off
Versions: 1 2 3 4 5 6 7 8 9 10 11 12 13 14 15 16 17 18 19 20 21 22 23 24 25 26 27 28 29 30 31 32 33 34 35 36 37 38 39 40 41 42 43 44 45 46 47 48 49 50

000
ASUS43 KLMK 222010
RWRKY
KENTUCKY REGIONAL WEATHER ROUNDUP
NATIONAL WEATHER SERVICE LOUISVILLE KY
400 PM EDT SUN APR 22 2018

NOTE "FAIR" INDICATES FEW OR NO CLOUDS BELOW 12,000 FEET
WITH NO SIGNIFICANT WEATHER AND/OR OBSTRUCTIONS TO VISIBILITY.

KYZ001>023-026-027-061>063-070>075-222100-
WESTERN AND SOUTH CENTRAL KENTUCKY

CITY           SKY/WX    TMP DP  RH WIND       PRES   REMARKS
PADUCAH        RAIN      58  55  90 E12       30.00F FOG
HENDERSON      LGT RAIN  66  51  58 E12G17    30.08F
OWENSBORO      LGT RAIN  67  49  52 E16       30.09F
HOPKINSVILLE   LGT RAIN  59  59 100 E10       30.03F
BOWLING GREEN  LGT RAIN  60  57  89 E10       30.12F
GLASGOW        LGT RAIN  60  53  78 E5        30.14F
$$

KYZ024-025-028>034-038-045-046-053-222100-
NORTH CENTRAL KENTUCKY

CITY           SKY/WX    TMP DP  RH WIND       PRES   REMARKS
LOUISVILLE/SDF CLOUDY    73  41  31 E10       30.13F
LOUISVILLE/LOU FAIR      72  44  36 E9        30.14F
FORT KNOX      FAIR      69  43  39 SE14      30.14F
$$

KYZ035>037-039>044-047>052-055>060-089>105-222100-
NORTHEAST KENTUCKY

CITY           SKY/WX    TMP DP  RH WIND       PRES   REMARKS
LEXINGTON      FAIR      70  42  36 NE10      30.17F
COVINGTON      CLOUDY    64  29  26 E15       30.21F
FRANKFORT      FAIR      72  40  31 E9        30.16F
$$

KYZ054-064>069-076>088-106>120-222100-
SOUTHEAST KENTUCKY

CITY           SKY/WX    TMP DP  RH WIND       PRES   REMARKS
JACKSON        CLOUDY    70  33  25 VRB5      30.17F
LONDON         FAIR      71  37  28 MISG      30.15F
SOMERSET       FAIR      72  37  28 MISG      30.15F
MIDDLESBORO    FAIR      72  44  36 E7        30.16F
MONTICELLO     CLOUDY    70  43  37 VRB5      30.15F
$$





USA.gov is the U.S. government's official web portal to all federal, state and local government web resources and services.